| time (UTC) | temp C | wind direction | speed KPH | gust KPH | rain 1hr cm | rain 24hr cm | rain mn cm | humidity % | barometer mb |
| 20260506214543 | 11 | 37 | 6.4 | 22.5 | 0.00 | 3.05 | 3.05 | 83 | 1016.8 |
| 20260506213021 | 11 | 349 | 3.2 | 14.5 | 0.00 | 3.05 | 3.05 | 85 | 1016.7 |
| 20260506211511 | 11 | 287 | 4.8 | 14.5 | 0.00 | 3.05 | 3.05 | 86 | 1016.6 |
| 20260506210042 | 11 | 25 | 3.2 | 19.3 | 0.00 | 3.05 | 3.05 | 86 | 1017.1 |
| 20260506204527 | 11 | 71 | 6.4 | 19.3 | 0.00 | 3.05 | 3.05 | 88 | 1016.3 |
| 20260506203009 | 10 | 359 | 8.0 | 20.9 | 0.03 | 3.05 | 3.05 | 89 | 1016.5 |
| 20260506201547 | 10 | 260 | 6.4 | 17.7 | 0.05 | 3.05 | 3.05 | 90 | 1016.9 |
| 20260506200039 | 10 | 4 | 8.0 | 22.5 | 0.18 | 3.05 | 3.05 | 90 | 1017.4 |
| 20260506194513 | 10 | 61 | 6.4 | 14.5 | 0.23 | 3.05 | 3.05 | 90 | 1017.7 |
| 20260506193057 | 10 | 78 | 0.0 | 4.8 | 0.25 | 3.02 | 3.02 | 90 | 1018.8 |
| 20260506191535 | 10 | 26 | 3.2 | 9.7 | 0.23 | 2.97 | 2.97 | 89 | 1018.4 |
| 20260506190015 | 10 | 273 | 0.0 | 6.4 | 0.15 | 2.84 | 2.84 | 89 | 1019.3 |
| 20260506184551 | 10 | 260 | 4.8 | 19.3 | 0.15 | 2.82 | 2.82 | 89 | 1018.4 |
| 20260506183035 | 10 | 297 | 8.0 | 20.9 | 0.13 | 2.77 | 2.77 | 88 | 1018.1 |
| 20260506181518 | 10 | 314 | 4.8 | 9.7 | 0.13 | 2.77 | 2.74 | 87 | 1019.5 |
| 20260506180051 | 10 | 307 | 3.2 | 9.7 | 0.10 | 2.74 | 2.72 | 86 | 1018.6 |
| 20260506174536 | 10 | 56 | 3.2 | 17.7 | 0.05 | 2.69 | 2.67 | 86 | 1018.8 |
| 20260506173011 | 10 | 354 | 3.2 | 12.9 | 0.03 | 2.67 | 2.64 | 85 | 1019.1 |
| 20260506171557 | 10 | 12 | 4.8 | 17.7 | 0.00 | 2.67 | 2.62 | 84 | 1018.5 |
| 20260506170030 | 11 | 276 | 3.2 | 12.9 | 0.00 | 2.67 | 2.62 | 83 | 1018.4 |
| 20260506164514 | 11 | 299 | 3.2 | 12.9 | 0.00 | 2.67 | 2.62 | 83 | 1018.2 |
| 20260506163106 | 10 | 341 | 4.8 | 20.9 | 0.00 | 2.67 | 2.62 | 82 | 1018.3 |
| 20260506161535 | 10 | 30 | 3.2 | 17.7 | 0.00 | 2.74 | 2.62 | 82 | 1017.9 |
| 20260506160019 | 10 | 354 | 4.8 | 12.9 | 0.00 | 2.74 | 2.62 | 85 | 1017.5 |
| 20260506154554 | 10 | 310 | 6.4 | 16.1 | 0.00 | 2.74 | 2.62 | 85 | 1018.1 |
| 20260506153035 | 10 | 52 | 4.8 | 16.1 | 0.00 | 2.74 | 2.62 | 87 | 1017.5 |
| 20260506151511 | 9 | 170 | 6.4 | 17.7 | 0.00 | 2.84 | 2.62 | 87 | 1018.1 |
| 20260506150049 | 9 | 56 | 6.4 | 19.3 | 0.00 | 2.84 | 2.62 | 88 | 1017.8 |
| 20260506144532 | 9 | 303 | 4.8 | 19.3 | 0.00 | 2.84 | 2.62 | 89 | 1017.9 |
| 20260506143006 | 9 | 322 | 3.2 | 19.3 | 0.00 | 2.84 | 2.62 | 90 | 1017.5 |
| 20260506141603 | 8 | 324 | 1.6 | 17.7 | 0.00 | 2.92 | 2.62 | 91 | 1017.2 |
| 20260506140022 | 8 | 347 | 3.2 | 16.1 | 0.00 | 2.92 | 2.62 | 91 | 1017.1 |
| 20260506134507 | 8 | 295 | 8.0 | 22.5 | 0.05 | 2.92 | 2.62 | 91 | 1017.8 |
| 20260506133042 | 9 | 268 | 6.4 | 19.3 | 0.10 | 2.92 | 2.62 | 92 | 1017.5 |
| 20260506131528 | 9 | 322 | 1.6 | 12.9 | 0.43 | 3.10 | 2.62 | 92 | 1017.2 |
| 20260506130100 | 8 | 239 | 1.6 | 16.1 | 0.53 | 3.10 | 2.62 | 92 | 1016.9 |
| 20260506130014 | 8 | 221 | 1.6 | 16.1 | 0.53 | 3.10 | 2.62 | 92 | 1017.0 |
| 20260506124547 | 9 | 293 | 1.6 | 14.5 | 0.89 | 3.07 | 2.59 | 92 | 1016.4 |
| 20260506123040 | 8 | 115 | 3.2 | 19.3 | 0.97 | 3.00 | 2.51 | 92 | 1016.5 |
| 20260506121515 | 9 | 292 | 6.4 | 22.5 | 0.58 | 2.72 | 2.16 | 91 | 1016.6 |
| 20260506120116 | 9 | 286 | 1.6 | 14.5 | 0.56 | 2.67 | 2.08 | 91 | 1015.6 |
| 20260506114528 | 9 | 285 | 1.6 | 16.1 | 0.43 | 2.29 | 1.70 | 92 | 1015.1 |
| 20260506113010 | 9 | 16 | 3.2 | 25.7 | 0.36 | 2.13 | 1.55 | 92 | 1014.3 |
| 20260506111544 | 9 | 36 | 4.8 | 25.7 | 0.36 | 2.13 | 1.55 | 92 | 1014.3 |
| 20260506110029 | 9 | 118 | 1.6 | 14.5 | 0.36 | 2.08 | 1.52 | 92 | 1014.4 |
| 20260506104508 | 9 | 332 | 6.4 | 25.7 | 0.13 | 1.85 | 1.27 | 92 | 1014.2 |
| 20260506103042 | 9 | 359 | 4.8 | 25.7 | 0.05 | 1.78 | 1.19 | 91 | 1013.7 |
| 20260506101522 | 10 | 8 | 12.9 | 25.7 | 0.05 | 1.78 | 1.19 | 91 | 1013.2 |
| 20260506100004 | 10 | 51 | 6.4 | 20.9 | 0.00 | 1.73 | 1.14 | 92 | 1013.1 |
| 20260506094547 | 10 | 130 | 3.2 | 29.0 | 0.08 | 1.73 | 1.14 | 92 | 1013.4 |
| 20260506093039 | 10 | 41 | 4.8 | 25.7 | 0.28 | 1.73 | 1.14 | 92 | 1013.6 |
| 20260506091600 | 10 | 60 | 8.0 | 24.1 | 0.28 | 1.73 | 1.14 | 91 | 1013.7 |
| 20260506091502 | 10 | 304 | 4.8 | 24.1 | 0.28 | 1.73 | 1.14 | 91 | 1013.5 |
| 20260506090043 | 10 | 325 | 4.8 | 33.8 | 0.33 | 1.73 | 1.14 | 92 | 1012.8 |
| 20260506084521 | 10 | 199 | 6.4 | 20.9 | 0.25 | 1.65 | 1.07 | 92 | 1014.3 |
| 20260506083100 | 10 | 335 | 4.8 | 25.7 | 0.05 | 1.42 | 0.86 | 92 | 1013.2 |
| 20260506083002 | 10 | 263 | 6.4 | 25.7 | 0.05 | 1.42 | 0.86 | 92 | 1013.3 |
| 20260506081536 | 10 | 280 | 6.4 | 37.0 | 0.05 | 1.42 | 0.86 | 91 | 1012.4 |
| 20260506073039 | 11 | 328 | 8.0 | 33.8 | 0.76 | 1.40 | 0.81 | 91 | 1011.6 |
| 20260506071523 | 12 | 332 | 8.0 | 25.7 | 0.81 | 1.40 | 0.81 | 92 | 1010.9 |
| 20260506070114 | 12 | 272 | 4.8 | 24.1 | 0.79 | 1.37 | 0.79 | 91 | 1010.5 |
| 20260506061553 | 14 | 320 | 8.0 | 22.5 | 0.00 | 0.58 | 0.00 | 89 | 1010.4 |
| 20260506044557 | 21 | 169 | 3.2 | 9.7 | 0.00 | 0.58 | 0.58 | 90 | 1008.1 |
| 20260506043027 | 21 | 153 | 0.0 | 9.7 | 0.00 | 0.58 | 0.58 | 90 | 1008.8 |
| 20260506041507 | 21 | 153 | 3.2 | 6.4 | 0.00 | 0.58 | 0.58 | 90 | 1008.9 |
| 20260506040047 | 21 | 175 | 1.6 | 6.4 | 0.00 | 0.58 | 0.58 | 89 | 1008.6 |
| 20260506034529 | 21 | 184 | 1.6 | 4.8 | 0.00 | 0.58 | 0.58 | 89 | 1008.4 |
| 20260506033009 | 21 | 73 | 0.0 | 12.9 | 0.00 | 0.58 | 0.58 | 89 | 1008.1 |
| 20260506031556 | 21 | 147 | 0.0 | 4.8 | 0.00 | 0.58 | 0.58 | 89 | 1008.0 |
| 20260506030029 | 21 | 35 | 0.0 | 6.4 | 0.00 | 0.58 | 0.58 | 89 | 1008.4 |
| 20260506024507 | 21 | 179 | 1.6 | 9.7 | 0.00 | 0.58 | 0.58 | 90 | 1008.5 |
| 20260506023045 | 21 | 83 | 1.6 | 4.8 | 0.00 | 0.58 | 0.58 | 89 | 1008.2 |
| 20260506021527 | 21 | 95 | 1.6 | 4.8 | 0.00 | 0.58 | 0.58 | 89 | 1008.3 |
| 20260506020007 | 21 | 105 | 0.0 | 4.8 | 0.00 | 0.58 | 0.58 | 89 | 1008.2 |
| 20260506014550 | 21 | 73 | 0.0 | 4.8 | 0.00 | 0.58 | 0.58 | 89 | 1008.0 |
| 20260506013027 | 21 | 87 | 1.6 | 4.8 | 0.00 | 0.58 | 0.58 | 88 | 1007.9 |
| 20260506011515 | 21 | 18 | 0.0 | 4.8 | 0.00 | 0.58 | 0.58 | 89 | 1008.0 |
| 20260506010054 | 21 | 77 | 0.0 | 4.8 | 0.00 | 0.58 | 0.58 | 88 | 1007.9 |
| 20260506004539 | 21 | 51 | 1.6 | 6.4 | 0.00 | 0.58 | 0.58 | 88 | 1007.5 |
| 20260506003010 | 21 | 131 | 1.6 | 4.8 | 0.00 | 0.58 | 0.58 | 88 | 1007.0 |
| 20260506001545 | 21 | 77 | 0.0 | 4.8 | 0.00 | 0.58 | 0.58 | 88 | 1007.7 |
| 20260506000026 | 22 | 89 | 1.6 | 4.8 | 0.00 | 0.58 | 0.58 | 88 | 1007.6 |
| 20260505234507 | 22 | 75 | 1.6 | 4.8 | 0.00 | 0.58 | 0.58 | 87 | 1007.4 |
| 20260505233048 | 22 | 60 | 1.6 | 8.0 | 0.00 | 0.58 | 0.58 | 87 | 1007.1 |
| 20260505231527 | 22 | 92 | 0.0 | 6.4 | 0.00 | 0.58 | 0.58 | 87 | 1007.6 |
| 20260505230013 | 22 | 67 | 0.0 | 4.8 | 0.00 | 0.58 | 0.58 | 87 | 1007.5 |
| 20260505224550 | 22 | 75 | 0.0 | 6.4 | 0.00 | 0.58 | 0.58 | 87 | 1007.3 |
| 20260505223030 | 21 | 78 | 1.6 | 6.4 | 0.00 | 0.58 | 0.58 | 88 | 1007.4 |
| 20260505221511 | 21 | 135 | 3.2 | 6.4 | 0.00 | 0.58 | 0.58 | 89 | 1007.3 |
| 20260505220109 | 21 | 97 | 1.6 | 6.4 | 0.00 | 0.58 | 0.58 | 89 | 1007.5 |